地平线卫星 17星 (GORIZONT 17)

导读 | 豆包AI

GORIZONT 17属于俄罗斯(原独联体CIS)“地平线”系列地球同步通信卫星,于1989年1月26日发射升空。该系列卫星由俄罗斯普里克拉德诺伊·梅哈尼基设计局研发,最初为保障1980年莫斯科奥运会全球信号转播而启动,后续集成至统一卫星通信系统,同时承担民用通信与军用指挥中继任务,也曾参与支持Okean海洋观测计划,目前已退役。运行在近地球同步轨道,采用三轴稳定控制,可实现全球通信覆盖。

基本信息
目录编号:
19765
目录名称:
GORIZONT 17
国际标识:
1989-004A
轨道中心:
EARTH
卫星名称:
地平线卫星 17星
卫星全名:
地平线卫星 17星 (GORIZONT 17)
卫星状态:
在轨 (已飞行13608 天)
发射日期:
1989-01-26 UTC
国别 :
俄罗斯(独联体) (CIS)
星等 :
--
轨道信息
数据来源 国际轨道数据 AOE轨道数据
星历时间 2026-04-30T09:49:00+0800
20小时前
查看轨道信息
2026-04-30T23:00:00+0800
7小时前
查看轨道信息
半长轴 42506.897km 42506.811km
偏心率 0.0018757 0.0018861
轨道倾角 12.320° 12.320°
近地点辐角 168.794° 169.005°
升交点赤经 333.644° 333.639°
平近点角 186.913° 22.606°
近地点 36049.029km 36048.501km
远地点 36208.491km 36208.847km
周期 1453.613分钟 1453.609分钟
每日圈数 0.990635 0.990638
详细信息
平衡模式:
三轴稳定
覆盖范围:
全球
运营商:
俄罗斯国家航天集团
运营商所在国:
俄罗斯
制造商(研发单位):
普里克拉德诺伊·梅哈尼基设计局
制造商所在国:
俄罗斯联邦
使用方式:
暂无
卫星简介
地平线卫星(Gorizont)(俄语:Горизонт,Horizon),是1978年至2000年间发射的一系列(共35颗)俄罗斯(前苏联)地球同步通信卫星。该计划的启动是为了开发一个卫星系统来中继信号使全球覆盖1980年的莫斯科奥运会。 最初的四颗卫星是为了这个唯一目的而发射的。 此后,Gorizont系统被集成到YesSSS统一卫星通信系统中,用于中继民用和军用通信。 从1988年起,这些卫星还被用于支持Okean计划。该卫星已退役。
2D轨道图
3D轨道图
轨道高度分析图
轨道倾角分析图
轨道综合分析图
查看轨道综合分析图